Regional Weather Roundup
Issued by NWS

Home | Current Version | Previous Version | Text Only | Print | Product List | Glossary Off
Versions: 1 2 3 4 5 6 7 8 9 10 11 12 13 14 15 16 17 18 19 20 21 22 23 24 25 26 27 28 29 30 31 32 33 34 35 36 37 38 39 40 41 42 43 44 45 46 47 48 49 50

000
ASUS43 KOAX 250710
RWRNE

WEATHER ROUNDUP FOR NEBRASKA
NATIONAL WEATHER SERVICE OMAHA NE
200 AM CDT THU MAY 25 2017

NOTES: SATELLITE DATA IS BEING USED TO AUGMENT CLOUD COVER ABOVE
       12000 FEET.
       "FAIR" INDICATES FEW OR NO CLOUDS BELOW 12,000 FEET WITH NO
       SIGNIFICANT WEATHER AND/OR OBSTRUCTIONS TO VISIBILITY.

  * THESE STATIONS DO NOT REPORT WEATHER SUCH AS RAIN...SNOW OR FOG.

NEZ001>004-019>022-054>056-250800-
NEBRASKA PANHANDLE

CITY           SKY/WX    TMP DP  RH WIND       PRES   REMARKS
SCOTTSBLUFF    CLOUDY    58  46  64 N9        29.46R
ALLIANCE       CLEAR     55  46  71 S14       29.44S
CHADRON        CLEAR     58  49  72 SW10      29.42R
GORDON         FAIR      57  45  63 S15       29.41S
KIMBALL        CLEAR     55  42  60 SW7       29.53F
SIDNEY         CLEAR     60  44  55 SW13      29.51F
$$

NEZ057>060-069>072-079>082-250800-
SOUTHWEST NEBRASKA

CITY           SKY/WX    TMP DP  RH WIND       PRES   REMARKS
NORTH PLATTE   CLEAR     55  44  66 SE12G25   29.53F
IMPERIAL       CLEAR     57  44  62 S18G25    29.51F
LEXINGTON      CLOUDY    54  45  70 SE16      29.57F
MCCOOK         PTCLDY    54  45  71 S12       29.55F
OGALLALA       CLEAR     57  46  65 S8        29.51F
$$

NEZ005>010-023>029-035>040-094-250800-
NORTH CENTRAL NEBRASKA

CITY           SKY/WX    TMP DP  RH WIND       PRES   REMARKS
VALENTINE      CLOUDY    58  41  53 S14       29.44F
AINSWORTH      PTCLDY    55  44  66 S20G29    29.46F
BROKEN BOW     LGT RAIN  54  45  71 S20G25    29.55F
O`NEILL        CLEAR     53  42  65 SE15      29.55F
ORD            CLOUDY    53  43  68 SE10      29.56F
THEDFORD       CLEAR     55  43  63 S22G28    29.49F
$$

NEZ041-046>049-061>064-073>077-083>087-250800-
SOUTH CENTRAL NEBRASKA

CITY           SKY/WX    TMP DP  RH WIND       PRES   REMARKS
GRAND ISLAND   CLEAR     54  45  71 S14       29.61F
AURORA         CLEAR     53  45  74 S10       29.61F
HASTINGS       CLEAR     53  44  71 S10       29.62F
HEBRON         CLEAR     51  45  82 S6        29.65F
HOLDREGE       PTCLDY    52  44  73 SE16      29.59F
KEARNEY *      CLEAR     54  43  66 S15       29.60F
YORK           CLEAR     52  45  76 SE6       29.64S
$$

NEZ011>018-030>034-042>045-250800-
NORTHEAST NEBRASKA

CITY           SKY/WX    TMP DP  RH WIND       PRES   REMARKS
NORFOLK        CLEAR     53  42  66 SE12      29.61F
ALBION         CLEAR     51  43  75 SE9       29.60F
BLAIR          CLEAR     53  46  76 SE5       29.66S
FREMONT        PTCLDY    52  45  76 SE6       29.66S
TEKAMAH        CLEAR     49  32  52 S6        29.66F
WAYNE          CLEAR     50  44  80 S10       29.64S
$$

NEZ050>053-065>068-078-088>093-250800-
SOUTHEAST NEBRASKA

CITY           SKY/WX    TMP DP  RH WIND       PRES   REMARKS
LINCOLN        CLEAR     52  44  74 S5        29.67S
OMAHA EPPLEY   CLEAR     53  45  74 SE3       29.67S
BEATRICE       CLEAR     52  45  76 S5        29.67R
FALLS CITY     CLEAR     50  46  86 CALM      29.68S
NEBRASKA CITY  CLEAR     51  46  82 S7        29.68S
PLATTSMOUTH    CLEAR     53  48  83 S6        29.67S
$$

NEZ044-045-051>053-067-250800-
OMAHA AREA

CITY           SKY/WX    TMP DP  RH WIND       PRES   REMARKS
OMAHA EPPLEY   CLEAR     53  45  74 SE3       29.67S
BLAIR          CLEAR     53  46  76 SE5       29.66S
FREMONT        PTCLDY    52  45  76 SE6       29.66S
MILLARD        CLEAR     50  48  95 CALM      29.67S
OFFUTT AFB     CLEAR     46  44  95 CALM      29.67R
PLATTSMOUTH    CLEAR     53  48  83 S6        29.67S
WAHOO          FAIR      49  44  81 SE5       29.66S
$$



USA.gov is the U.S. government's official web portal to all federal, state and local government web resources and services.